Time,TemperatureF,DewpointF,PressureIn,WindDirection,WindDirectionDegrees,WindSpeedMPH,WindSpeedGustMPH,Humidity,HourlyPrecipIn,Conditions,Clouds,dailyrainin,SoftwareType,DateUTC
2013-09-20 00:11:00,40.4,36.0,29.38,ENE,68,5.0,5.0,83,0.00,,,0.00,weatherlink.com 1.10,2013-09-20 09:11:00,
2013-09-20 00:26:00,40.6,36.0,29.38,ENE,68,5.0,6.0,82,0.00,,,0.00,weatherlink.com 1.10,2013-09-20 09:26:00,
2013-09-20 00:41:00,39.2,35.0,29.37,ENE,68,0.0,5.0,84,0.00,,,0.00,weatherlink.com 1.10,2013-09-20 09:41:00,
2013-09-20 00:56:00,38.8,34.0,29.37,ENE,76,4.0,6.0,84,0.00,,,0.00,weatherlink.com 1.10,2013-09-20 09:56:00,
2013-09-20 01:11:00,38.6,35.0,29.38,SE,146,1.0,5.0,87,0.00,,,0.00,weatherlink.com 1.10,2013-09-20 10:11:00,
2013-09-20 01:26:00,39.2,35.0,29.38,East,79,4.0,5.0,84,0.00,,,0.00,weatherlink.com 1.10,2013-09-20 10:26:00,
2013-09-20 01:41:00,37.6,34.0,29.38,East,93,4.0,5.0,86,0.00,,,0.00,weatherlink.com 1.10,2013-09-20 10:41:00,
2013-09-20 01:56:00,38.6,35.0,29.38,East,92,2.0,4.0,86,0.00,,,0.00,weatherlink.com 1.10,2013-09-20 10:56:00,
2013-09-20 02:11:00,38.9,35.0,29.37,East,90,5.0,5.0,85,0.00,,,0.00,weatherlink.com 1.10,2013-09-20 11:11:00,
2013-09-20 02:26:00,38.4,35.0,29.37,East,80,1.0,5.0,86,0.00,,,0.00,weatherlink.com 1.10,2013-09-20 11:26:00,
2013-09-20 02:41:00,38.5,34.0,29.37,ENE,78,4.0,6.0,85,0.00,,,0.00,weatherlink.com 1.10,2013-09-20 11:41:00,
2013-09-20 02:56:00,38.8,35.0,29.37,East,92,0.0,7.0,85,0.00,,,0.00,weatherlink.com 1.10,2013-09-20 11:56:00,
2013-09-20 03:11:00,39.5,35.0,29.37,ENE,72,1.0,6.0,84,0.00,,,0.00,weatherlink.com 1.10,2013-09-20 12:11:00,
2013-09-20 03:26:00,38.9,35.0,29.37,ENE,66,4.0,6.0,84,0.00,,,0.00,weatherlink.com 1.10,2013-09-20 12:26:00,
2013-09-20 03:41:00,39.6,35.0,29.37,ENE,69,3.0,5.0,84,0.00,,,0.00,weatherlink.com 1.10,2013-09-20 12:41:00,
2013-09-20 03:56:00,40.2,35.0,29.37,ENE,76,4.0,5.0,81,0.00,,,0.00,weatherlink.com 1.10,2013-09-20 12:56:00,
2013-09-20 04:11:00,41.9,36.0,29.36,SE,132,2.0,6.0,79,0.00,,,0.00,weatherlink.com 1.10,2013-09-20 13:11:00,
2013-09-20 04:26:00,41.6,36.0,29.36,East,85,4.0,6.0,80,0.00,,,0.00,weatherlink.com 1.10,2013-09-20 13:26:00,
2013-09-20 04:41:00,41.1,35.0,29.35,ENE,69,5.0,6.0,80,0.00,,,0.00,weatherlink.com 1.10,2013-09-20 13:41:00,
2013-09-20 04:56:00,41.2,36.0,29.35,ENE,69,4.0,6.0,80,0.00,,,0.00,weatherlink.com 1.10,2013-09-20 13:56:00,
2013-09-20 05:11:00,40.8,35.0,29.35,ENE,61,3.0,5.0,80,0.00,,,0.00,weatherlink.com 1.10,2013-09-20 14:11:00,
2013-09-20 05:26:00,40.0,35.0,29.35,ENE,61,4.0,5.0,82,0.00,,,0.00,weatherlink.com 1.10,2013-09-20 14:26:00,
2013-09-20 05:41:00,39.7,35.0,29.35,ENE,61,2.0,5.0,83,0.00,,,0.00,weatherlink.com 1.10,2013-09-20 14:41:00,
2013-09-20 05:56:00,39.9,35.0,29.35,ENE,61,5.0,5.0,83,0.00,,,0.00,weatherlink.com 1.10,2013-09-20 14:56:00,
2013-09-20 06:11:00,39.7,35.0,29.35,ENE,61,4.0,6.0,84,0.00,,,0.00,weatherlink.com 1.10,2013-09-20 15:11:00,
2013-09-20 06:26:00,38.8,34.0,29.35,NE,49,5.0,6.0,82,0.00,,,0.00,weatherlink.com 1.10,2013-09-20 15:26:00,
2013-09-20 06:41:00,38.9,34.0,29.35,NE,40,4.0,5.0,81,0.00,,,0.00,weatherlink.com 1.10,2013-09-20 15:41:00,
2013-09-20 06:56:00,37.7,33.0,29.34,NE,49,5.0,6.0,84,0.00,,,0.00,weatherlink.com 1.10,2013-09-20 15:56:00,
2013-09-20 07:11:00,37.6,33.0,29.34,NE,49,4.0,5.0,82,0.00,,,0.00,weatherlink.com 1.10,2013-09-20 16:11:00,
2013-09-20 07:26:00,38.7,34.0,29.34,NE,49,1.0,4.0,84,0.00,,,0.00,weatherlink.com 1.10,2013-09-20 16:26:00,
2013-09-20 07:41:00,38.7,34.0,29.34,ENE,76,0.0,5.0,82,0.00,,,0.00,weatherlink.com 1.10,2013-09-20 16:41:00,
2013-09-20 07:56:00,38.0,32.0,29.34,NE,38,6.0,8.0,79,0.00,,,0.00,weatherlink.com 1.10,2013-09-20 16:56:00,
2013-09-20 08:11:00,37.7,32.0,29.33,NE,38,5.0,6.0,80,0.00,,,0.00,weatherlink.com 1.10,2013-09-20 17:11:00,
2013-09-20 08:26:00,39.2,33.0,29.33,NE,38,2.0,5.0,79,0.00,,,0.00,weatherlink.com 1.10,2013-09-20 17:26:00,
2013-09-20 08:41:00,39.6,34.0,29.32,NE,38,0.0,4.0,80,0.00,,,0.00,weatherlink.com 1.10,2013-09-20 17:41:00,
2013-09-20 08:56:00,40.3,35.0,29.32,NE,38,0.0,1.0,80,0.00,,,0.00,weatherlink.com 1.10,2013-09-20 17:56:00,
2013-09-20 09:12:00,40.9,35.0,29.32,NE,38,0.0,0.0,80,0.00,,,0.00,weatherlink.com 1.10,2013-09-20 18:12:00,
2013-09-20 09:27:00,41.5,36.0,29.31,NE,38,0.0,1.0,81,0.00,,,0.00,weatherlink.com 1.10,2013-09-20 18:27:00,
2013-09-20 09:42:00,43.6,37.0,29.31,NE,38,1.0,4.0,77,0.00,,,0.00,weatherlink.com 1.10,2013-09-20 18:42:00,
2013-09-20 09:57:00,44.5,36.0,29.31,NE,38,1.0,1.0,72,0.00,,,0.00,weatherlink.com 1.10,2013-09-20 18:57:00,
2013-09-20 10:12:00,45.1,32.0,29.30,NNW,332,4.0,5.0,61,0.00,,,0.00,weatherlink.com 1.10,2013-09-20 19:12:00,
2013-09-20 10:27:00,45.4,29.0,29.30,West,281,5.0,6.0,52,0.00,,,0.00,weatherlink.com 1.10,2013-09-20 19:27:00,
2013-09-20 10:42:00,44.7,31.0,29.30,West,279,5.0,8.0,58,0.00,,,0.00,weatherlink.com 1.10,2013-09-20 19:42:00,
2013-09-20 10:57:00,44.5,30.0,29.30,WNW,283,4.0,7.0,58,0.00,,,0.00,weatherlink.com 1.10,2013-09-20 19:57:00,
2013-09-20 11:12:00,44.4,31.0,29.29,West,276,6.0,7.0,59,0.00,,,0.00,weatherlink.com 1.10,2013-09-20 20:12:00,
2013-09-20 11:27:00,44.7,32.0,29.29,WNW,300,7.0,9.0,62,0.00,,,0.00,weatherlink.com 1.10,2013-09-20 20:27:00,
2013-09-20 11:42:00,44.7,33.0,29.29,WNW,300,5.0,7.0,63,0.00,,,0.00,weatherlink.com 1.10,2013-09-20 20:42:00,
2013-09-20 11:57:00,45.0,33.0,29.28,NW,304,2.0,7.0,64,0.00,,,0.00,weatherlink.com 1.10,2013-09-20 20:57:00,
2013-09-20 12:12:00,44.7,33.0,29.28,West,273,6.0,8.0,63,0.00,,,0.00,weatherlink.com 1.10,2013-09-20 21:12:00,
2013-09-20 12:27:00,45.0,33.0,29.27,WNW,290,6.0,9.0,64,0.00,,,0.00,weatherlink.com 1.10,2013-09-20 21:27:00,
2013-09-20 12:42:00,45.1,33.0,29.26,West,267,5.0,10.0,63,0.00,,,0.00,weatherlink.com 1.10,2013-09-20 21:42:00,
2013-09-20 12:57:00,45.2,32.0,29.26,West,272,5.0,9.0,61,0.00,,,0.00,weatherlink.com 1.10,2013-09-20 21:57:00,
2013-09-20 13:12:00,45.4,32.0,29.25,West,279,6.0,9.0,61,0.00,,,0.00,weatherlink.com 1.10,2013-09-20 22:12:00,
2013-09-20 13:27:00,45.6,31.0,29.25,WSW,257,6.0,8.0,58,0.00,,,0.00,weatherlink.com 1.10,2013-09-20 22:27:00,
2013-09-20 13:42:00,45.8,32.0,29.24,WSW,244,4.0,8.0,58,0.00,,,0.00,weatherlink.com 1.10,2013-09-20 22:42:00,
2013-09-20 13:57:00,46.0,33.0,29.23,WSW,252,8.0,9.0,61,0.00,,,0.00,weatherlink.com 1.10,2013-09-20 22:57:00,
2013-09-20 14:12:00,46.0,32.0,29.22,WNW,294,7.0,9.0,58,0.00,,,0.00,weatherlink.com 1.10,2013-09-20 23:12:00,
2013-09-20 14:27:00,46.2,33.0,29.21,WNW,282,8.0,12.0,61,0.00,,,0.00,weatherlink.com 1.10,2013-09-20 23:27:00,
2013-09-20 14:42:00,46.1,34.0,29.20,West,275,10.0,11.0,62,0.00,,,0.00,weatherlink.com 1.10,2013-09-20 23:42:00,
2013-09-20 14:57:00,46.1,33.0,29.18,West,278,8.0,11.0,61,0.00,,,0.00,weatherlink.com 1.10,2013-09-20 23:57:00,
2013-09-20 15:12:00,45.9,34.0,29.17,WNW,283,9.0,10.0,64,0.00,,,0.00,weatherlink.com 1.10,2013-09-21 00:12:00,
2013-09-20 15:27:00,45.8,32.0,29.17,WNW,302,7.0,10.0,60,0.00,,,0.00,weatherlink.com 1.10,2013-09-21 00:27:00,
2013-09-20 15:42:00,45.7,34.0,29.16,West,273,7.0,9.0,64,0.00,,,0.00,weatherlink.com 1.10,2013-09-21 00:42:00,
2013-09-20 15:58:00,45.7,33.0,29.15,West,259,5.0,7.0,62,0.00,,,0.00,weatherlink.com 1.10,2013-09-21 00:58:00,
2013-09-20 16:13:00,45.6,34.0,29.14,West,269,5.0,8.0,65,0.00,,,0.00,weatherlink.com 1.10,2013-09-21 01:13:00,
2013-09-20 16:28:00,45.6,34.0,29.13,West,269,4.0,8.0,65,0.00,,,0.00,weatherlink.com 1.10,2013-09-21 01:28:00,
2013-09-20 16:43:00,45.7,34.0,29.12,West,274,7.0,8.0,64,0.00,,,0.00,weatherlink.com 1.10,2013-09-21 01:43:00,
2013-09-20 16:58:00,45.6,34.0,29.11,WNW,291,5.0,8.0,64,0.00,,,0.00,weatherlink.com 1.10,2013-09-21 01:58:00,
2013-09-20 17:13:00,45.8,34.0,29.10,WSW,257,6.0,7.0,64,0.00,,,0.00,weatherlink.com 1.10,2013-09-21 02:13:00,
2013-09-20 17:28:00,46.1,36.0,29.09,West,261,5.0,7.0,69,0.00,,,0.00,weatherlink.com 1.10,2013-09-21 02:28:00,
2013-09-20 17:43:00,45.9,35.0,29.08,WNW,294,3.0,10.0,67,0.00,,,0.00,weatherlink.com 1.10,2013-09-21 02:43:00,
2013-09-20 17:58:00,46.3,35.0,29.07,NW,315,3.0,3.0,65,0.00,,,0.00,weatherlink.com 1.10,2013-09-21 02:58:00,
2013-09-20 18:13:00,47.0,35.0,29.06,WNW,294,0.0,4.0,64,0.00,,,0.00,weatherlink.com 1.10,2013-09-21 03:13:00,
2013-09-20 18:28:00,46.5,36.0,29.06,WSW,258,0.0,5.0,67,0.00,,,0.00,weatherlink.com 1.10,2013-09-21 03:28:00,
2013-09-20 18:43:00,45.5,37.0,29.05,WSW,258,1.0,2.0,71,0.00,,,0.00,weatherlink.com 1.10,2013-09-21 03:43:00,
2013-09-20 18:58:00,44.0,36.0,29.04,North,5,3.0,4.0,74,0.00,,,0.00,weatherlink.com 1.10,2013-09-21 03:58:00,
2013-09-20 19:13:00,42.8,36.0,29.03,ESE,107,1.0,4.0,76,0.00,,,0.00,weatherlink.com 1.10,2013-09-21 04:13:00,
2013-09-20 19:28:00,42.2,35.0,29.03,ESE,107,2.0,3.0,77,0.00,,,0.00,weatherlink.com 1.10,2013-09-21 04:28:00,
2013-09-20 19:43:00,41.6,35.0,29.02,ESE,107,1.0,2.0,78,0.00,,,0.00,weatherlink.com 1.10,2013-09-21 04:43:00,
2013-09-20 19:58:00,41.0,35.0,29.01,ESE,107,1.0,4.0,79,0.00,,,0.00,weatherlink.com 1.10,2013-09-21 04:58:00,
2013-09-20 20:13:00,40.7,35.0,29.01,ESE,107,2.0,4.0,80,0.00,,,0.00,weatherlink.com 1.10,2013-09-21 05:13:00,
2013-09-20 20:28:00,40.1,35.0,29.00,ENE,65,1.0,6.0,81,0.00,,,0.00,weatherlink.com 1.10,2013-09-21 05:28:00,
2013-09-20 20:43:00,40.3,35.0,28.99,ENE,68,0.0,1.0,82,0.00,,,0.00,weatherlink.com 1.10,2013-09-21 05:43:00,
2013-09-20 20:58:00,40.5,35.0,28.98,ENE,68,0.0,4.0,82,0.00,,,0.00,weatherlink.com 1.10,2013-09-21 05:58:00,
2013-09-20 21:13:00,40.7,36.0,28.98,ESE,119,1.0,4.0,82,0.00,,,0.00,weatherlink.com 1.10,2013-09-21 06:13:00,
2013-09-20 21:28:00,40.5,35.0,28.97,ESE,107,1.0,3.0,81,0.00,,,0.00,weatherlink.com 1.10,2013-09-21 06:28:00,
2013-09-20 21:43:00,40.0,35.0,28.96,ESE,106,4.0,4.0,82,0.00,,,0.00,weatherlink.com 1.10,2013-09-21 06:43:00,
2013-09-20 21:58:00,39.8,34.0,28.96,ENE,71,1.0,5.0,81,0.00,,,0.00,weatherlink.com 1.10,2013-09-21 06:58:00,
2013-09-20 22:13:00,39.6,35.0,28.95,NE,40,0.0,2.0,82,0.00,,,0.00,weatherlink.com 1.10,2013-09-21 07:13:00,
2013-09-20 22:28:00,39.5,34.0,28.94,NE,40,0.0,1.0,82,0.00,,,0.00,weatherlink.com 1.10,2013-09-21 07:28:00,
2013-09-20 22:43:00,39.1,34.0,28.94,NE,40,1.0,2.0,83,0.00,,,0.00,weatherlink.com 1.10,2013-09-21 07:43:00,
2013-09-20 22:58:00,39.0,34.0,28.93,NE,40,1.0,1.0,83,0.00,,,0.00,weatherlink.com 1.10,2013-09-21 07:58:00,
2013-09-20 23:14:00,38.8,34.0,28.93,NE,40,2.0,2.0,83,0.00,,,0.00,weatherlink.com 1.10,2013-09-21 08:14:00,
2013-09-20 23:29:00,38.8,34.0,28.92,NE,40,1.0,2.0,84,0.00,,,0.00,weatherlink.com 1.10,2013-09-21 08:29:00,
2013-09-20 23:44:00,38.7,35.0,28.92,NE,40,1.0,1.0,85,0.00,,,0.00,weatherlink.com 1.10,2013-09-21 08:44:00,
2013-09-20 23:59:00,38.5,34.0,28.91,NE,40,1.0,4.0,85,0.00,,,0.00,weatherlink.com 1.10,2013-09-21 08:59:00,